Location: Berg
(47.2344°N, 9.5296°E)
Time: 12:40:25
(UTC+00:00)

Envisat - Pass Details

Date: 26 September 2021
Orbit: 764 x 766 km, 98.2° (Epoch: 20 October)

Event Time Altitude Azimuth Distance (km) Brightness Sun altitude
Rises 03:19:51 0° 28° (NNE) 3,242 7.0 -19.8°
Reaches altitude 10° 03:22:55 10° 47° (NE) 2,310 6.5 -19.3°
Maximum altitude 03:26:20 18° 90° (E) 1,818 5.8 -18.8°
Drops below altitude 10° 03:29:43 10° 132° (SE) 2,297 5.8 -18.2°
Sets 03:32:45 0° 151° (SSE) 3,217 6.4 -17.8°
